Regional Weather Roundup
Issued by NWS

Home | Current Version | Previous Version | Text Only | Print | Product List | Glossary On
Versions: 1 2 3 4 5 6 7 8 9 10 11 12 13 14 15 16 17 18 19 20 21 22 23 24 25 26 27 28 29 30 31 32 33 34 35 36 37 38 39 40 41 42 43 44 45 46 47 48 49 50
000
ASUS44 KFWD 301715
RWRTX
NORTH TEXAS HOURLY WEATHER ROUNDUP
NATIONAL WEATHER SERVICE FORT WORTH TX
1200 PM CDT TUE JUN 30 2015

NOTE: "FAIR" INDICATES FEW OR NO CLOUDS BELOW 12,000 FEET WITH NO
SIGNIFICANT WEATHER AND/OR OBSTRUCTIONS TO VISIBILITY.

TXZ118-119-301800-
DALLAS/FORT WORTH METROPLEX

CITY           SKY/WX    TMP DP  RH WIND       PRES   REMARKS
DFW AIRPORT    MOSUNNY   89  70  53 S14       30.02F HX  94
DALLAS LOVE    MOSUNNY   89  70  53 SW9       30.02F HX  94
FTW MEACHAM    SUNNY     87  73  62 S13       30.02F HX  94
DAL-EXECUTIVE  SUNNY     86  70  58 SW7       30.03S HX  90
FTW-ALLIANCE   MOSUNNY   87  71  58 SW10      30.02F HX  93
FTW-NAS-JRB    MOSUNNY   88  73  61 SW14G20   30.03F HX  95
FTW-SPINKS     SUNNY     88  72  58 S10G17    30.05F HX  94
ARLINGTON      SUNNY     87  70  56 S9        30.03F HX  92
GRAND PRAIRIE  SUNNY     88  72  58 SW9       30.04F HX  94
ADDISON        SUNNY     88  68  51 S10G16    30.03F HX  91
MESQUITE       SUNNY     88  68  51 SE6       30.04S HX  91
LANCASTER      SUNNY     86  69  57 SW7       30.04S HX  90
$$

TXZ091>094-102>105-117-120-121-131>134-301800-
NORTH CENTRAL TEXAS

CITY           SKY/WX    TMP DP  RH WIND       PRES   REMARKS
SHRMAN/DENISON SUNNY     88  73  62 SW8       30.03F HX  95
GAINESVILLE    SUNNY     85  71  63 S8        30.05S
BOWIE          SUNNY     83  67  57 SW8       30.05R
BRIDGEPORT     SUNNY     86  71  59 SW5       30.06S HX  91
DECATUR        SUNNY     85  68  56 SW9       30.05S
DENTON         SUNNY     87  71  58 SW14      30.03S HX  93
MCKINNEY       SUNNY     89  70  53 W12       30.02F HX  94
GREENVILLE     SUNNY     88  64  45 S5        30.03F
ROCKWALL       SUNNY     87  68  53 SW10G16   30.02F HX  91
TERRELL        SUNNY     83  69  62 S6        30.04F
WAXAHACHIE     SUNNY     85  73  67 W10       30.05S HX  92
CLEBURNE       SUNNY     84  77  79 SW9       30.05F HX  94
GRANBURY       CLOUDY    88  72  58 S7        30.05S HX  94
$$

TXZ083>090-098>101-113>116-127>130-139>142-154-155-301800-
WESTERN NORTH TEXAS

CITY           SKY/WX    TMP DP  RH WIND       PRES   REMARKS
WICHITA FALLS  SUNNY     88  67  49 CALM      30.03S HX  91
WF-KICKAPOO    SUNNY     88  64  45 W7        30.05S
VERNON         SUNNY     90  56  31 W5        30.06S
ABILENE        SUNNY     85  65  51 CALM      30.09S
ABILENE-DYESS  MOSUNNY   84  66  53 SW6       30.07F
BRECKENRIDGE   SUNNY     88  62  42 S7        30.05F
GRAHAM         SUNNY     86  67  53 S5        30.03F
MINERAL WELLS  SUNNY     86  71  60 W5        30.03F HX  91
STEPHENVILLE   MOSUNNY   85  71  61 S8        30.09F HX  90
COMANCHE       MOSUNNY   85  72  63 SW8       30.08S HX  91
BROWNWOOD      MOSUNNY   86  70  58 S7        30.08F HX  90
COLEMAN        MOSUNNY   85  71  61 S7        30.09F HX  90
BRADY          MOSUNNY   86  68  54 N10       30.09S
$$

TXZ143>147-156>162-174-175-301800-
CENTRAL TEXAS

CITY           SKY/WX    TMP DP  RH WIND       PRES   REMARKS
WACO           MOSUNNY   84  72  67 S10       30.05S
WACO-TSTC      SUNNY     82  73  74 S5        30.05S
WACO-MCGREGOR  CLOUDY    82  72  69 SE7       30.07R
HILLSBORO      SUNNY     84  71  65 SW8       30.04F
CORSICANA      HAZE      86  73  65 VRB7      30.06S VSB 3/4 HX  93
MEXIA          CLOUDY    79  73  82 W7        30.05R
HEARNE         CLOUDY    83  75  77 S5        30.05F
CAMERON        PTSUNNY   85  74  71 SW9       30.03F HX  92
TEMPLE         MOSUNNY   82  72  69 SE6       30.03F
KILLEEN        MOSUNNY   86  72  63 SW10      30.05F HX  92
KILLEEN-SKYLRK MOSUNNY   88  72  58 S9        30.04F HX  94
FORT HOOD      MOSUNNY   87  73  62 S10       30.04F HX  93
GATESVILLE     SUNNY     88  72  58 SW8       30.06F HX  94
HAMILTON       MOSUNNY   85  72  64 SW6       30.07F HX  91
LAMPASAS       SUNNY     90  75  59 SW7       30.06F HX 100
$$

TXZ095>097-106>112-122>126-135>138-148>153-164>167-301800-
EAST TEXAS

CITY           SKY/WX    TMP DP  RH WIND       PRES   REMARKS
PARIS          SUNNY     88  68  51 W14       30.03S HX  91
SULPHUR SPRNGS SUNNY     88  67  50 W8        30.05F HX  91
MOUNT PLEASANT SUNNY     89  65  45 CALM      30.04F HX  90
GILMER         SUNNY     86  68  54 CALM      30.03F
MINEOLA        SUNNY     88  64  45 SW7       30.04F
TYLER          SUNNY     87  66  49 SW8       30.04F
LONGVIEW       SUNNY     88  69  53 W9        30.02F HX  92
MARSHALL       MOSUNNY   90  74  59 W8        30.05S HX  99
ATHENS         SUNNY     82  66  57 CALM      30.03F
PALESTINE      MOSUNNY   85  73  67 SW5       30.05S HX  91
JACKSONVILLE   MOSUNNY   85  71  61 S3        30.07F HX  90
HENDERSON      MOSUNNY   85  69  58 W8        30.05F
CENTER         FAIR      84  73  69 SW3       30.04F HX  90
NACOGDOCHES    MOSUNNY  N/A N/A N/A W7        30.04F
LUFKIN         PTSUNNY   86  74  67 SW5       30.06S HX  94
$$

SUPPLEMENTAL OBSERVATIONS (CENTRAL)

CITY           SKY/WX    TMP DP  RH WIND       PRES   REMARKS
LAKE TEXOMA      N/A     84  70  61 SW12        N/A
CADDO GRASSLND   N/A     90  73  58 SW6         N/A  HX  98
PAT MAYSE LAKE   N/A     84  73  70 SW8         N/A  HX  91
GREENVILLE       N/A     88  68  51 SW10        N/A  HX  91
CEDAR HILL       N/A     88  72  58 SW6G14      N/A  HX  94
LAKE LIMESTONE   N/A     84  72  65 SW7         N/A
MCGREGOR         N/A     82  73  74 SE6         N/A
$$

SUPPLEMENTAL OBSERVATIONS (WEST)

CITY           SKY/WX    TMP DP  RH WIND       PRES   REMARKS
LBJ GRASSLAND    N/A     88  72  58 S7          N/A  HX  94
COMANCHE         N/A     86  72  62 SW9         N/A  HX  92
HAMBY            N/A     88  64  45 SW6         N/A
IVIE RESERVOIR   N/A     88  70  55 S8          N/A  HX  92
COLORADO BEND    N/A     86  66  51 W6          N/A
$$

SUPPLEMENTAL OBSERVATIONS (EAST)

CITY           SKY/WX    TMP DP  RH WIND       PRES   REMARKS
CLARKSVILLE      N/A     91  68  46 SW2         N/A  HX  95
TEXARKANA        N/A     90  68  48 NW5         N/A  HX  93
LINDEN           N/A     91  70  49 NW6         N/A  HX  97
CADDO LAKE       N/A     91  73  55 W5          N/A  HX 100
GILMER           N/A     90  66  45 SW6         N/A  HX  92
HENDERSON        N/A     88  72  58 SW9         N/A  HX  94
LUFKIN           N/A     88  75  66 MISG        N/A  HX  97
N SABINE NF      N/A     88  73  62 MISG        N/A  HX  96
S SABINE NF      N/A     90  73  58 CALM        N/A  HX  98
$$

SUPPLEMENTAL OBSERVATIONS ARE A COLLECTION OF AUTOMATED INSTRUMENTS
THAT ARE MAINTAINED BY A VARIETY OF FEDERAL AND STATE AGENCIES.
CERTAIN ELEMENTS...SUCH AS HUMIDITY VALUES AND SUSTAINED WIND
SPEEDS...MAY BE APPROXIMATED.



USA.gov is the U.S. government's official web portal to all federal, state and local government web resources and services.